Regional Weather Roundup
Issued by NWS

Home | Current Version | Previous Version | Graphics & Text | Print | Product List | Glossary On
Versions: 1 2 3 4 5 6 7 8 9 10 11 12 13 14 15 16 17 18 19 20 21 22 23 24 25 26 27 28 29 30 31 32 33 34 35 36 37 38 39 40 41 42 43 44 45 46 47 48 49 50
000
ASUS43 KLMK 211410
RWRKY
KENTUCKY REGIONAL WEATHER ROUNDUP
NATIONAL WEATHER SERVICE LOUISVILLE KY
900 AM EST TUE NOV 21 2017

NOTE "FAIR" INDICATES FEW OR NO CLOUDS BELOW 12,000 FEET
WITH NO SIGNIFICANT WEATHER AND/OR OBSTRUCTIONS TO VISIBILITY.

KYZ001>023-026-027-061>063-070>075-211500-
WESTERN AND SOUTH CENTRAL KENTUCKY

CITY           SKY/WX    TMP DP  RH WIND       PRES   REMARKS
PADUCAH        SUNNY     42  29  59 SW6       29.99S
HENDERSON      SUNNY     42  31  64 S15G22    29.97F
OWENSBORO      SUNNY     42  31  64 S12       30.00S
HOPKINSVILLE   SUNNY     42  27  55 S8        30.05R
BOWLING GREEN  SUNNY     42  33  70 S8        30.07R
GLASGOW        MOSUNNY   43  33  67 S7        30.06S
$$

KYZ024-025-028>034-038-045-046-053-211500-
NORTH CENTRAL KENTUCKY

CITY           SKY/WX    TMP DP  RH WIND       PRES   REMARKS
LOUISVILLE/SDF MOSUNNY   45  28  51 S12       30.01R
LOUISVILLE/LOU MOSUNNY   42  30  62 S8        30.02R
FORT KNOX      MOSUNNY   42  28  58 S10       30.00R
$$

KYZ035>037-039>044-047>052-055>060-089>105-211500-
NORTHEAST KENTUCKY

CITY           SKY/WX    TMP DP  RH WIND       PRES   REMARKS
LEXINGTON      CLOUDY    43  32  65 S10       30.04R
COVINGTON      CLOUDY    42  29  59 S10       29.96R
FRANKFORT      CLOUDY    44  29  55 SW13      30.01S
$$

KYZ054-064>069-076>088-106>120-211500-
SOUTHEAST KENTUCKY

CITY           SKY/WX    TMP DP  RH WIND       PRES   REMARKS
JACKSON        SUNNY     47  31  53 VRB3      30.07R
LONDON         SUNNY     37  30  75 CALM      30.07S
SOMERSET       CLOUDY    45  32  61 S6        30.09S
MIDDLESBORO    SUNNY     39  32  74 CALM      30.12R
MONTICELLO     SUNNY     51  36  56 VRB7      30.09
$$





USA.gov is the U.S. government's official web portal to all federal, state and local government web resources and services.